19P/Borrelly (2015)

Japanese version
Home page
Updated on May 15, 2016

---------------------------------------------------------------------

* Profile

* Pictures

* Orbital Elements

Epoch 2014 Dec. 9.0 TT = JDT 2457000.5
T 2015 May 28.90914 TT                                  MPCW
q   1.3489912            (2000.0)            P               Q
n   0.14417160     Peri.  353.45114     +0.34598795     -0.80062377
a   3.6020487      Node    75.37930     +0.88212542     +0.09997937
e   0.6254933      Incl.   30.36770     +0.31960455     +0.59076704
P   6.84
From 1912 observations 1994 June 12-2015 Feb. 11, mean residual 0".7.
     Nongravitational parameters A1 = +0.21, A2 = -0.0380.

* Finding Charts

* Magnitudes Graph

        H = 15.0  G = 0.15               [    ,-310]  (             - 2014 July 22)
        m1 = 5.5 + 5 log d + 25.0 log r  [-310,  67]  (2014 July 22 - 2015 Aug.  3)
        m1 = 7.4 + 5 log d + 15.0 log r  [  67,    ]  (2015 Aug.  3 -             )

---------------------------------------------------------------------

The orbital elements are published on M.P.E.C. 2015-E14.
The charts are made with StellaNavigator Ver.8 (AstroArts).
The magnitudes graphs are made with Comet for Windows.

---------------------------------------------------------------------

Copyright(C) Seiichi Yoshida (comet@aerith.net). All rights reserved.